Wind_Speed
7 7 8 9 10 11 12 12 12 12 12 11 11 11 11 11 12 12 12 12 12 13 13 13 13 14 15 15 16 16 17 17 17 18 18 18 19 19 20 20 21 21 21 22 22 22 22 21 21 21 21 21 21 21 22 22 22 22 23 23 23 23 23 24 24 25 25 26 25
7 7 7 8 9 10 10 11 11 11 10 10 10 11 11 11 12 12 12 12 13 13 13 13 14 14 14 15 15 16 16 17 17 17 18 18 19 19 20 20 21 21 22 22 22 22 22 22 21 21 20 20 20 21 22 23 23 24 24 24 24 23 23 23 24 25 26 26 26
7 7 7 7 7 8 8 9 9 10 10 10 11 11 12 12 12 12 12 13 13 13 13 14 14 14 15 16 16 17 17 17 17 18 18 18 19 19 20 20 21 21 22 22 22 23 23 23 22 21 21 21 21 21 22 22 23 24 24 25 25 24 23 23 24 24 24 25 26
7 7 7 7 7 8 8 8 9 9 10 10 11 12 12 12 12 13 13 14 14 14 14 14 14 15 16 17 18 18 18 19 19 19 20 20 20 20 20 20 21 21 21 22 22 23 23 23 23 22 22 22 22 22 22 22 22 23 24 25 24 24 24 24 24 24 24 24 25
6 6 7 7 8 8 8 9 9 10 10 11 12 12 12 12 12 13 13 13 14 14 14 15 16 17 18 19 19 20 20 21 21 21 21 21 22 22 22 21 21 21 21 22 22 22 23 23 23 22 22 22 23 23 24 24 23 23 24 24 24 24 24 24 24 24 24 24 25
7 7 7 7 8 8 8 9 9 10 10 11 12 12 12 12 12 12 13 13 14 16 17 17 18 19 19 20 20 20 21 21 22 22 22 22 23 23 23 23 23 22 22 22 22 22 22 22 22 22 22 23 24 25 25 25 25 25 25 25 24 24 24 25 25 25 25 25 25
7 7 7 8 8 8 9 9 10 11 11 12 13 13 13 13 13 14 15 16 16 17 18 18 19 19 20 20 20 21 21 22 22 22 22 23 23 23 23 23 23 23 23 23 22 22 22 21 21 22 22 22 23 24 25 26 26 26 26 26 25 25 25 25 26 25 25 26 27
8 8 8 8 9 9 10 10 11 12 13 13 14 14 15 15 16 16 17 18 18 18 18 19 19 20 21 21 21 21 22 22 22 23 22 23 23 23 23 23 23 23 23 23 23 22 21 21 21 21 22 22 23 24 25 25 26 27 27 27 27 26 26 26 27 27 27 28 29
7 8 8 9 9 10 11 12 13 14 14 15 15 16 16 17 18 18 18 18 18 19 19 20 21 21 21 21 21 22 22 22 22 23 23 23 23 23 23 23 23 23 23 23 23 22 21 21 21 21 22 22 23 24 24 25 26 27 28 28 27 27 26 26 26 27 28 29 30
8 8 9 9 10 11 12 14 15 16 16 17 17 17 18 18 18 18 18 18 18 19 20 20 21 21 21 21 22 22 22 22 22 22 23 23 23 23 24 24 24 24 24 23 23 22 21 21 21 22 22 23 24 25 25 26 26 27 27 27 27 27 27 27 27 27 27 28 30
8 9 10 10 11 13 14 15 16 16 16 17 17 18 18 18 18 18 18 18 18 19 20 20 20 20 20 21 22 22 22 22 22 22 22 23 23 24 24 24 24 24 24 24 23 23 22 21 22 23 23 24 25 26 26 26 27 27 27 27 27 28 28 28 28 28 28 28 29
9 10 11 11 12 13 14 15 15 16 16 16 17 17 17 17 17 18 18 18 19 19 20 20 20 20 20 21 21 21 21 21 21 21 22 23 24 24 24 25 25 25 25 24 24 23 22 22 23 23 24 25 25 25 26 27 27 27 27 28 28 28 29 29 30 29 29 29 29
10 11 11 12 12 13 14 14 14 15 15 16 16 17 17 17 17 18 18 18 19 19 19 19 20 20 20 20 21 21 21 21 21 22 22 23 24 24 24 25 25 25 25 24 24 23 23 23 24 25 26 26 25 25 26 26 27 27 27 28 28 28 29 31 31 31 30 30 30
11 11 12 12 12 13 13 14 14 15 15 16 16 16 17 17 18 18 18 18 19 19 19 20 20 20 20 20 20 21 21 22 22 23 23 24 24 24 24 24 24 24 25 24 24 24 24 25 25 26 27 27 27 27 27 26 26 26 27 27 28 28 29 30 31 31 31 31 32
12 12 12 13 13 13 14 14 14 15 15 16 17 17 17 17 18 18 18 18 19 20 20 20 20 20 20 21 21 22 22 22 23 23 23 24 24 24 24 24 24 24 25 25 25 25 25 26 27 28 28 28 29 29 28 27 27 27 28 28 29 30 30 31 32 32 32 32 32
12 13 13 13 13 14 14 14 15 15 16 17 18 18 18 18 18 18 19 19 20 20 20 20 20 21 21 21 22 22 22 22 22 23 23 23 23 24 24 24 24 25 26 27 27 27 27 27 28 28 29 29 29 29 29 29 29 30 30 31 32 32 33 34 34 33 32 32 32
13 13 13 14 14 14 15 15 16 16 17 18 19 19 19 19 19 19 20 20 21 21 21 21 21 21 22 22 22 21 21 22 22 22 23 23 24 24 25 25 26 26 27 28 29 29 29 29 29 29 29 29 30 30 30 30 31 31 32 33 33 34 35 35 34 33 32 31 32
13 14 14 14 15 15 16 17 18 18 19 20 20 20 20 20 20 21 21 22 22 22 22 23 22 22 22 22 22 22 21 22 22 23 23 24 25 25 26 27 27 27 27 29 30 30 31 31 30 29 29 29 29 30 30 31 31 32 32 33 33 34 35 35 35 34 32 31 31
14 14 15 15 16 17 18 19 19 20 20 20 20 20 21 21 21 22 22 23 22 22 23 23 23 23 22 23 23 22 22 22 23 24 25 25 26 27 27 28 28 28 28 29 30 31 32 31 31 30 29 29 30 31 31 32 32 33 33 33 34 34 35 36 36 35 34 33 33
15 15 15 16 18 19 19 20 20 20 21 21 21 22 22 22 22 23 23 23 23 23 23 24 24 24 23 23 23 23 23 23 24 25 25 26 27 27 28 29 29 29 29 29 30 31 32 32 31 31 31 31 32 33 34 34 34 34 35 35 35 35 36 36 36 36 36 36 36
15 16 17 18 19 19 20 20 21 21 21 22 22 23 23 23 23 23 23 24 24 24 24 24 24 24 24 24 24 25 25 24 25 26 26 27 27 28 29 28 28 28 28 29 30 31 32 33 33 33 34 34 35 35 36 36 36 36 36 35 35 35 36 36 36 36 36 36 36
17 18 18 19 20 20 20 21 21 22 22 22 23 23 23 23 23 23 24 24 24 24 24 24 24 24 25 25 25 26 26 26 26 27 27 27 28 28 28 27 27 28 28 29 31 32 33 33 34 34 35 35 35 36 36 36 36 36 35 35 34 35 36 37 37 37 37 37 37
18 19 19 20 20 21 21 21 22 22 22 23 23 23 23 23 24 24 24 25 25 25 25 24 24 25 25 26 26 27 27 28 28 28 28 28 28 28 28 27 28 29 29 30 31 32 32 33 33 33 33 33 33 34 34 33 33 33 33 33 34 35 37 38 38 38 38 39 38
20 20 20 20 21 21 22 22 22 22 23 23 23 23 23 24 24 24 25 25 25 25 25 25 25 26 26 26 27 27 28 28 28 29 28 28 28 28 28 28 28 28 29 29 30 30 30 30 31 31 30 30 31 31 31 31 31 31 32 33 34 35 36 37 37 38 38 38 38
20 20 21 21 22 22 22 23 23 23 23 23 23 24 24 24 24 25 25 25 26 26 26 26 27 27 27 27 27 27 27 27 28 28 28 28 28 29 28 28 28 28 29 30 30 30 29 29 29 29 30 30 31 31 30 30 30 30 31 32 32 33 33 34 34 34 34 35 36
21 21 22 22 22 23 23 23 23 23 24 24 24 24 24 24 24 25 25 26 26 27 27 27 27 27 27 26 26 26 27 27 27 28 28 29 29 30 29 29 28 29 29 30 30 30 29 29 29 30 30 31 32 31 31 31 31 31 32 32 32 32 33 34 34 34 34 34 34
22 22 23 23 23 23 23 23 23 24 24 24 24 24 24 25 25 25 26 26 27 27 27 27 27 26 26 26 26 26 27 27 28 28 29 29 30 30 30 29 29 30 31 31 31 30 30 30 30 30 31 31 32 32 31 31 32 32 32 32 33 32 33 33 34 34 33 32 32
22 22 23 23 23 23 23 24 24 24 24 24 24 24 25 25 25 26 26 26 27 27 27 26 26 25 25 26 26 27 28 28 29 29 30 30 30 30 30 29 29 30 30 30 30 30 30 31 31 31 31 31 31 30 30 31 31 32 31 31 31 31 31 31 31 31 31 30 30
23 23 23 23 23 23 23 23 23 24 24 24 24 25 25 25 26 26 26 27 27 27 27 26 27 26 26 27 28 29 29 29 29 29 30 30 30 30 30 30 30 30 30 29 30 31 31 32 32 32 32 31 31 30 30 30 30 30 30 30 30 30 31 31 30 30 30 30 29
23 23 23 23 23 23 23 23 24 24 24 24 25 25 25 26 26 26 26 27 27 27 27 27 28 28 28 29 29 30 30 30 29 29 30 30 30 31 31 30 31 31 31 31 31 31 32 32 32 32 32 31 31 31 30 29 29 29 29 30 31 31 30 30 31 31 30 30 29
23 23 23 23 23 23 23 24 24 24 24 24 25 25 26 26 26 27 27 27 28 28 28 28 28 29 29 29 29 30 30 30 30 30 30 30 31 31 31 31 31 32 32 31 31 31 32 32 32 32 32 32 31 30 30 30 29 29 29 30 31 31 31 31 31 31 30 30 30
22 22 22 23 23 23 24 24 24 24 25 25 26 26 27 27 27 27 27 28 28 28 28 28 29 29 30 30 30 30 30 31 31 31 31 30 31 31 31 31 31 32 31 31 31 31 32 32 32 32 32 32 32 31 31 31 30 30 30 30 31 31 31 30 30 30 30 30 29
21 22 22 22 23 23 24 24 24 25 26 26 27 27 27 28 28 28 28 27 27 28 28 28 29 29 30 30 30 31 31 31 31 30 30 30 31 31 31 31 31 31 31 31 31 32 32 32 33 33 33 32 32 31 31 31 30 30 30 30 30 29 29 29 29 29 29 29 29
21 21 21 22 23 24 24 25 26 26 27 27 28 27 27 27 28 28 27 27 27 28 28 29 29 29 30 30 30 31 31 31 30 30 30 31 31 31 31 32 31 31 31 32 32 32 33 33 33 33 33 32 32 31 30 30 29 29 29 29 29 29 28 29 29 30 30 30 30
20 21 22 23 24 25 26 27 28 28 28 28 28 28 28 27 27 28 28 28 29 29 29 29 29 29 30 30 30 30 30 31 31 31 30 30 31 31 32 32 32 32 32 33 33 33 33 33 33 33 33 32 30 29 29 29 28 28 28 28 28 27 28 28 30 30 31 32 32
20 22 23 25 26 27 27 28 28 28 28 28 28 28 28 28 28 28 28 29 29 29 29 29 29 29 29 30 29 29 29 30 31 31 31 30 31 31 32 33 33 33 33 33 33 33 32 32 32 32 32 31 29 28 27 27 26 26 26 26 27 27 28 29 29 30 32 33 34
22 23 25 26 27 28 28 28 28 29 28 28 28 28 28 28 29 29 28 28 29 29 29 29 29 29 29 29 29 30 30 30 30 31 31 31 31 31 32 33 33 33 33 32 32 32 32 32 32 32 31 30 28 27 26 25 25 24 25 25 26 28 28 28 28 29 31 32 33
24 24 25 27 27 28 28 28 28 28 29 29 29 29 29 29 29 29 28 28 28 29 29 29 29 29 29 30 30 30 30 30 30 31 31 31 31 31 32 33 34 33 33 32 32 32 32 31 31 30 29 28 27 26 25 24 24 24 24 25 25 26 27 27 28 28 28 29 29
25 25 26 27 27 28 29 29 29 29 29 29 29 29 29 29 29 29 28 28 28 28 29 29 30 30 30 30 31 31 31 31 31 31 31 31 31 31 32 33 34 34 33 32 32 31 31 30 30 29 29 28 27 26 25 24 24 24 25 24 24 25 26 26 26 26 26 26 26
25 26 26 27 27 28 28 29 29 29 29 29 29 29 29 29 29 29 29 28 28 28 29 30 30 30 30 31 31 31 32 32 31 31 31 31 32 32 32 32 33 33 32 31 31 30 30 29 29 29 28 27 26 25 24 24 25 25 24 24 24 24 26 26 25 24 24 24 25
26 26 27 27 28 28 28 29 29 29 29 29 29 29 29 29 29 28 28 28 29 29 29 30 31 31 31 31 31 31 32 32 32 31 31 32 32 32 32 32 32 32 31 30 29 28 28 28 28 28 28 27 27 26 25 24 24 24 24 23 23 24 25 26 25 24 24 25 26
Wind_Direction
312 308 306 304 304 305 305 304 304 303 302 300 299 298 297 296 296 295 295 295 294 294 294 294 295 296 297 298 299 299 298 297 297 295 293 291 289 287 284 281 278 275 273 271 270 269 267 264 260 257 255 252 250 249 249 248 248 247 247 247 247 247 246 245 245 244 243 242 241
309 305 302 301 302 305 306 306 306 306 304 301 298 297 296 296 295 295 295 295 294 294 295 296 296 297 298 300 301 301 300 300 299 298 297 295 293 290 288 285 281 278 276 274 271 269 267 264 261 258 255 253 251 250 249 249 248 248 248 247 247 247 247 246 245 245 244 243 242
308 307 305 303 302 303 302 301 301 302 301 298 297 297 297 296 296 296 296 298 299 299 298 298 298 299 300 301 303 304 303 302 302 301 299 298 296 294 291 288 285 282 279 276 273 270 267 265 262 259 257 255 252 251 250 250 248 248 248 248 247 247 246 246 245 245 244 243 242
310 309 308 305 304 303 301 300 300 300 300 299 299 300 300 300 299 299 300 302 302 301 299 298 299 299 301 302 304 305 305 305 304 303 301 300 299 297 295 292 289 285 282 279 275 272 269 266 263 260 258 256 254 253 252 251 249 248 248 248 247 246 246 246 245 244 243 242 241
313 311 309 306 305 304 302 301 302 302 302 302 303 303 302 301 300 300 300 300 298 297 297 298 298 299 301 303 304 305 305 305 304 303 302 301 300 300 299 296 292 288 285 281 278 274 271 268 264 261 259 257 255 254 253 252 251 250 250 249 248 247 246 245 244 243 242 242 241
312 310 308 306 305 306 306 306 307 306 305 304 304 302 299 297 295 294 294 293 294 295 296 297 298 299 301 302 302 302 302 302 302 301 300 299 299 299 298 296 294 291 288 285 281 277 274 270 266 263 260 258 257 256 255 253 253 252 251 251 249 248 246 245 245 244 242 241 240
307 306 307 307 308 309 310 310 309 308 307 304 302 299 296 295 293 292 292 293 294 295 296 297 298 299 299 299 299 299 299 299 299 299 298 297 297 296 296 295 294 292 289 287 284 280 276 272 268 265 262 259 258 257 256 255 253 252 252 252 251 250 248 247 246 244 243 242 241
305 305 305 306 308 309 309 309 309 308 305 302 299 296 295 294 293 293 294 294 294 294 295 296 296 296 297 296 296 296 296 297 297 296 296 295 295 295 294 294 293 291 290 288 285 282 279 275 270 266 263 260 259 258 257 255 254 253 252 252 253 252 251 250 248 247 245 244 243
304 304 304 305 305 304 305 306 306 306 303 299 297 295 294 294 294 294 294 293 293 293 294 294 295 295 295 294 294 294 295 295 295 295 294 294 294 293 293 293 292 291 290 289 287 284 281 277 273 269 265 262 260 259 258 257 256 255 254 254 255 255 254 252 251 249 248 246 245
302 301 302 302 300 300 301 303 304 303 301 298 296 295 295 294 294 294 293 292 292 293 293 293 294 294 293 293 293 293 293 294 293 293 293 293 292 292 292 292 291 290 290 289 288 286 283 279 275 271 268 265 263 262 261 260 259 258 256 256 256 256 256 255 254 252 251 249 247
300 300 299 299 297 299 301 302 302 301 300 298 297 296 296 295 294 294 294 293 293 292 292 292 293 293 292 292 292 293 293 293 292 292 292 292 291 291 291 290 290 289 289 288 287 286 283 280 277 274 272 269 267 266 265 263 262 261 260 259 259 259 258 258 257 255 254 253 251
301 300 299 298 298 299 301 301 301 300 299 298 298 298 298 297 297 296 296 295 294 293 293 294 293 293 292 292 292 292 292 292 291 291 291 290 290 290 290 289 288 288 287 287 286 285 282 280 278 276 274 273 271 269 268 266 265 264 263 262 262 261 261 260 259 258 257 256 255
302 300 299 299 299 299 299 299 299 300 300 300 300 300 300 299 299 299 299 297 296 296 295 296 295 294 293 292 292 292 292 292 291 291 290 290 289 289 289 288 287 287 286 286 285 283 281 279 278 277 276 275 273 271 270 269 268 267 266 265 264 263 262 262 261 260 259 259 258
303 302 301 301 301 301 300 300 300 300 301 301 301 301 301 301 301 301 300 298 298 297 297 297 296 295 294 293 293 293 292 292 292 291 290 289 289 289 288 288 287 287 286 285 284 283 281 280 279 277 276 276 275 273 272 270 269 268 267 267 266 265 264 264 263 263 262 261 260
305 305 304 305 304 303 303 302 301 301 301 301 301 302 302 302 302 301 300 299 298 298 298 297 296 296 295 294 294 293 293 293 292 291 290 290 289 289 288 288 288 287 286 285 284 283 281 280 279 278 278 276 276 275 274 272 270 269 267 267 266 266 266 265 265 264 264 263 262
307 308 308 308 307 305 304 303 302 301 301 301 301 302 302 301 301 301 300 299 298 298 297 296 296 296 296 295 294 294 294 293 292 291 291 290 290 290 289 289 288 287 287 285 284 283 282 281 280 279 278 277 277 276 275 274 272 271 269 268 267 267 267 266 266 266 265 265 264
310 310 310 310 308 307 305 304 303 302 301 301 301 301 301 301 300 300 299 299 298 298 297 296 296 295 295 295 295 294 293 292 292 291 290 290 290 290 289 289 288 287 287 286 285 284 283 282 281 280 279 278 277 277 276 275 274 273 272 272 271 270 269 269 268 267 266 266 265
312 312 312 311 309 307 305 304 303 302 301 301 301 301 300 300 300 299 299 299 298 297 297 296 295 295 294 294 294 293 292 291 291 290 289 289 289 289 288 288 287 287 286 285 285 284 283 283 282 281 279 278 277 277 276 276 276 275 275 274 274 273 272 272 270 269 268 266 265
313 313 313 311 309 308 306 305 304 304 303 302 301 301 300 300 300 299 299 299 298 297 296 296 295 294 294 293 292 292 291 290 290 289 288 288 288 287 287 287 286 286 285 284 284 283 283 283 282 281 280 278 278 277 277 276 276 276 276 276 276 275 274 273 272 271 270 267 266
314 314 313 311 309 308 307 306 305 305 304 303 302 301 301 301 301 300 299 298 298 298 296 295 295 294 294 293 292 291 291 290 289 289 288 288 287 287 286 286 286 285 284 283 283 283 282 282 281 281 280 279 278 278 278 277 277 277 277 276 276 276 275 274 274 272 271 270 268
314 313 312 311 310 309 308 307 306 305 304 303 302 302 302 302 301 300 299 298 298 298 297 295 295 294 293 293 292 291 290 290 289 288 288 287 287 286 286 285 285 284 283 282 282 282 282 282 281 281 281 280 280 280 279 279 279 278 278 277 276 276 275 275 274 273 272 271 270
314 313 312 311 311 310 309 308 307 306 305 304 303 303 302 302 301 300 299 299 299 297 296 295 294 293 293 292 291 291 290 290 288 288 287 287 286 286 285 284 284 283 283 282 282 282 282 282 282 282 282 282 282 282 282 281 280 280 279 278 277 277 276 276 274 273 272 271 270
315 314 313 312 311 310 309 308 307 306 305 305 304 303 302 302 301 300 300 299 298 297 296 295 294 293 292 291 291 290 290 289 288 287 286 286 285 285 285 284 284 283 283 282 282 282 282 283 283 284 284 284 284 284 284 284 282 281 280 279 279 278 278 277 276 275 274 272 271
316 315 313 312 311 310 310 309 308 307 306 305 304 303 303 302 301 301 300 299 298 297 296 295 293 293 292 291 290 289 289 288 288 287 287 286 286 286 286 286 285 284 283 282 282 281 282 283 284 284 285 285 285 285 285 285 283 282 281 280 279 279 279 279 278 277 276 274 273
315 314 313 312 311 311 310 309 308 307 306 305 304 304 303 302 301 301 300 299 297 297 296 294 293 292 292 291 290 289 288 287 287 287 287 287 287 287 287 286 286 284 283 282 281 281 281 282 283 283 284 284 285 284 284 283 283 282 281 280 280 280 280 280 279 278 277 276 275
314 313 312 312 312 311 310 309 308 307 306 306 305 303 302 301 301 300 298 297 297 296 295 294 293 293 292 290 290 289 288 288 288 288 288 288 288 288 287 286 285 284 283 282 282 282 282 282 283 283 284 284 284 284 284 284 283 282 282 281 281 281 281 281 281 280 279 278 277
312 312 312 312 312 310 309 309 308 307 306 305 304 302 301 300 300 298 297 296 296 296 295 294 294 293 292 291 290 289 289 289 289 288 288 287 287 287 287 286 285 284 283 284 284 284 284 285 285 285 286 286 286 286 285 285 284 284 283 282 281 281 280 280 280 281 280 279 278
311 311 312 312 310 309 309 308 307 306 305 303 302 301 300 300 298 297 296 296 296 296 296 295 295 294 294 293 292 291 290 290 290 289 288 287 287 286 286 286 285 285 285 285 286 286 286 287 287 287 288 287 288 287 286 285 285 284 283 282 281 280 280 280 280 281 281 281 280
312 312 311 310 309 308 307 307 305 304 303 302 301 300 300 299 297 297 296 296 297 297 297 297 297 297 295 294 293 292 291 290 290 289 289 288 287 287 287 287 287 287 287 287 287 288 288 288 289 289 289 288 288 288 287 286 285 284 283 282 281 281 281 281 281 281 282 282 283
312 311 309 308 307 306 305 304 303 303 302 301 300 300 299 298 297 297 297 298 298 298 297 297 297 296 294 293 293 292 292 291 291 290 290 289 289 289 289 289 289 289 289 288 289 289 289 289 290 290 290 290 290 289 288 286 285 284 283 282 281 281 281 281 282 282 283 283 284
309 308 306 305 304 303 302 302 302 301 301 300 300 299 298 298 297 298 298 298 298 298 298 297 296 294 294 293 293 292 292 292 292 292 291 291 290 290 290 290 290 290 290 290 290 290 290 291 291 291 292 292 291 290 289 287 286 284 283 282 282 281 281 282 282 283 283 284 285
305 304 303 302 300 300 301 301 300 300 300 300 299 299 298 298 298 298 298 298 299 299 298 298 296 295 295 295 295 294 293 293 293 293 292 292 291 291 291 291 291 291 291 291 291 292 292 293 293 293 293 293 293 292 290 289 287 285 284 283 282 282 282 282 282 283 284 284 285
301 300 300 299 298 299 299 300 300 300 300 300 299 299 298 298 298 298 298 298 299 299 298 298 297 297 296 296 296 295 295 294 293 293 293 292 292 292 292 292 292 292 292 292 292 293 294 294 294 294 295 295 294 293 292 290 288 287 285 284 284 283 283 283 284 284 285 285 286
298 298 298 298 298 299 300 300 301 301 300 300 299 299 299 298 299 299 299 299 299 299 299 298 297 296 296 296 295 295 295 294 294 294 294 294 293 293 293 293 293 293 293 293 293 294 295 295 296 296 296 296 296 294 293 291 289 287 286 284 284 284 284 285 285 285 285 285 285
297 298 299 299 300 300 301 302 302 301 301 300 299 299 299 299 299 299 299 300 300 299 298 297 297 296 296 295 295 294 294 295 295 295 294 294 294 294 294 293 293 293 293 294 294 295 296 297 297 297 297 297 297 295 293 291 290 287 286 284 284 284 284 285 285 285 284 283 281
298 300 301 301 301 301 301 302 302 301 301 300 300 300 300 300 300 300 300 300 300 299 298 298 298 297 296 296 295 295 295 295 295 295 295 295 295 294 294 293 293 293 294 295 295 296 297 297 298 298 298 298 296 295 293 292 290 288 286 285 284 285 285 285 284 283 281 279 277
301 302 302 302 302 302 301 302 301 301 301 300 300 300 300 301 300 301 301 301 300 299 299 298 298 297 297 296 296 295 295 295 295 295 295 295 295 294 294 294 294 294 295 296 297 297 298 298 298 298 298 297 296 295 294 292 290 289 287 286 285 285 286 286 284 282 280 278 276
302 302 302 301 301 301 301 301 301 301 301 301 300 301 301 301 301 301 301 301 300 299 299 299 298 297 297 297 296 296 296 295 295 295 295 295 295 294 294 294 295 295 296 296 297 297 298 298 298 298 298 297 296 295 294 292 289 288 287 286 285 286 287 287 286 284 281 279 278
302 301 301 301 301 301 301 301 301 301 301 301 301 301 301 301 301 301 300 300 299 299 299 298 298 298 298 298 297 297 296 296 295 295 295 295 295 294 294 294 295 295 296 296 297 297 298 298 298 298 298 297 296 295 292 290 287 285 285 284 285 287 289 288 287 284 281 280 281
301 301 301 300 301 301 301 301 301 301 301 301 301 302 301 301 300 300 300 300 299 299 298 298 298 298 298 298 298 297 297 296 295 295 295 295 295 295 295 294 295 295 296 297 297 298 298 298 298 298 298 297 295 292 289 287 286 285 286 287 288 289 290 290 286 283 281 282 283
301 301 301 301 301 301 301 301 301 301 301 301 301 301 301 301 300 300 300 300 300 299 299 299 298 298 298 298 298 297 296 296 296 295 295 295 295 295 295 295 295 295 296 297 298 299 299 299 298 298 297 295 293 290 288 287 288 290 291 292 292 291 290 289 287 285 284 284 284
Height
832 832 831 831 830 830 830 829 829 829 828 828 828 827 827 826 825 825 824 824 823 822 821 820 820 819 818 817 817 816 815 815 814 813 812 811 811 810 809 808 807 806 805 804 803 802 801 801 800 799 798 797 796 796 795 795 794 794 793 792 792 791 791 790 790 789 789 789 788
832 831 831 830 830 830 829 829 828 828 827 827 827 826 826 825 825 824 823 822 822 821 820 819 818 818 817 816 815 815 814 813 812 811 811 810 809 808 807 806 806 805 804 803 802 801 800 799 798 797 796 795 795 794 793 792 792 791 790 790 789 789 788 788 787 786 786 786 786
831 831 830 830 830 829 829 828 828 827 827 826 826 825 825 824 823 823 822 821 820 820 819 818 817 816 815 815 814 813 812 811 810 810 809 808 807 806 805 805 804 803 802 801 800 799 798 797 796 795 795 793 793 792 790 790 789 789 788 787 786 786 785 785 784 784 784 783 783
831 830 830 830 829 829 828 828 827 827 826 826 825 825 824 823 822 821 821 820 819 819 818 817 816 815 814 813 812 811 811 810 809 808 807 806 805 804 804 803 802 801 800 799 799 797 796 796 795 794 793 791 791 790 789 788 787 786 785 784 784 783 783 782 781 781 780 780 779
830 830 830 829 828 828 827 827 826 826 825 825 824 823 823 822 821 820 820 819 818 817 817 816 815 814 813 812 811 810 809 808 807 806 805 804 803 802 801 800 800 799 798 797 796 795 795 794 793 792 790 790 789 787 786 786 785 784 783 782 781 780 780 779 778 778 777 776 776
830 829 829 828 828 827 827 826 826 825 825 824 823 823 822 821 821 820 819 818 817 816 815 815 814 813 811 810 810 809 808 807 806 805 804 803 801 800 800 799 798 797 796 795 794 793 792 792 791 790 788 787 786 785 784 784 783 782 781 780 779 778 777 776 775 775 774 773 773
829 828 828 827 827 826 826 825 825 824 824 823 822 822 821 820 820 819 818 817 816 815 814 813 812 811 810 809 808 807 806 805 804 803 802 801 800 799 798 797 795 795 794 793 792 791 790 790 789 787 786 785 784 782 781 781 780 780 778 777 776 775 775 774 773 772 772 770 770
828 828 827 826 826 825 825 825 824 823 823 822 821 821 820 820 819 818 817 816 815 814 813 812 811 810 809 808 807 805 805 804 802 801 800 799 798 797 796 795 794 793 792 791 790 789 788 787 786 785 784 783 781 780 779 778 778 777 776 775 774 773 772 771 770 770 769 768 767
827 827 826 826 825 825 824 824 823 822 822 821 820 820 819 818 817 816 815 814 813 812 811 810 809 808 807 806 805 804 803 802 801 800 798 797 796 795 794 793 792 790 790 789 788 787 786 785 784 783 781 780 779 777 776 776 775 774 773 772 771 771 770 770 769 768 767 766 765
827 826 825 825 824 824 823 822 822 821 820 820 819 818 817 816 815 815 814 813 812 811 810 809 808 807 806 805 804 802 801 800 799 798 796 795 794 793 792 791 790 789 787 786 786 785 784 783 782 780 779 778 777 775 775 774 773 772 771 770 769 768 768 767 767 766 765 764 763
826 825 825 824 823 823 822 821 820 820 819 818 817 817 816 815 814 813 813 811 810 810 808 807 806 805 804 803 802 801 800 799 797 796 795 794 792 791 790 789 788 787 785 785 784 783 782 780 779 778 777 776 775 774 773 772 771 770 769 768 767 766 765 765 764 764 763 761 760
825 824 824 823 822 821 821 820 819 819 818 817 816 815 815 814 813 812 811 810 809 808 807 806 805 804 803 801 800 799 798 797 796 795 793 792 790 789 788 787 786 785 784 782 782 781 780 778 777 775 775 774 773 772 771 770 769 768 767 766 765 764 763 762 762 761 761 760 759
824 823 823 822 821 820 820 819 818 817 817 816 815 814 814 813 812 811 810 809 808 807 805 805 804 803 801 800 799 798 796 795 794 793 792 790 789 788 786 785 784 783 782 780 780 779 778 776 775 774 772 771 770 770 769 768 767 766 765 764 763 762 761 760 759 759 758 758 757
823 823 822 821 820 820 819 818 817 816 815 815 814 813 812 811 810 810 809 808 806 805 804 803 802 801 800 799 797 796 795 794 793 791 790 789 787 786 785 783 782 781 780 779 778 777 776 774 773 771 770 769 768 767 766 766 765 764 763 761 760 759 758 757 757 756 756 755 754
822 822 821 820 820 819 818 817 816 815 815 814 813 812 811 810 809 808 807 806 805 804 803 801 800 799 798 797 796 795 793 792 791 790 788 787 785 785 783 782 781 780 778 777 776 775 774 772 771 770 768 767 765 765 764 763 762 761 760 759 758 757 756 755 754 754 753 752 751
821 820 820 819 818 818 817 816 815 814 813 812 811 810 810 808 807 806 805 804 803 802 801 800 799 797 796 795 794 793 792 790 789 788 786 785 784 783 781 780 779 778 776 775 774 773 772 770 769 768 766 765 764 762 761 760 760 759 757 756 755 754 753 752 752 751 750 750 749
820 820 819 818 817 816 815 815 814 813 812 811 810 809 808 807 806 805 804 803 801 800 799 798 797 795 794 793 792 791 790 788 787 786 785 783 782 781 780 778 777 776 774 773 772 770 769 768 767 766 764 763 761 760 759 758 757 756 755 754 753 752 750 750 749 749 748 747 746
819 819 818 817 816 815 814 813 812 811 810 809 808 807 806 805 804 803 802 801 800 799 797 796 795 794 793 791 790 789 788 786 785 784 783 781 780 779 777 776 775 773 772 771 769 768 767 765 764 763 762 761 759 758 757 755 755 753 752 751 750 749 748 747 746 746 745 745 743
818 817 816 816 815 814 813 812 811 810 809 808 807 805 805 803 802 801 800 799 798 797 795 794 793 792 791 790 788 787 786 785 783 781 780 779 777 776 775 773 772 770 769 768 767 765 764 763 762 760 760 758 757 755 754 753 752 751 750 749 747 746 745 744 743 743 742 741 740
817 816 815 815 814 813 811 810 810 809 807 806 805 804 803 802 801 800 798 797 796 795 794 793 791 790 789 788 786 785 784 783 781 780 778 776 775 774 772 770 769 768 766 765 764 763 761 760 759 758 757 755 754 753 752 751 750 748 747 746 745 743 742 741 740 740 739 738 737
816 815 814 813 812 811 810 809 808 807 806 805 804 803 801 800 799 798 797 795 795 793 792 791 790 788 787 785 784 783 782 780 779 777 775 774 772 771 769 768 766 765 764 762 761 760 759 757 756 755 754 753 751 750 749 748 747 745 744 743 742 740 739 738 737 736 736 735 735
815 814 813 812 811 810 809 808 807 806 805 803 802 801 800 799 798 796 795 794 793 792 790 789 788 786 785 784 782 781 779 778 776 775 773 771 770 768 767 766 764 762 761 760 759 757 756 755 754 752 751 750 749 747 746 745 744 742 741 740 739 737 736 735 734 733 732 732 731
814 813 812 811 810 809 808 806 805 804 803 802 801 800 799 797 796 795 794 792 791 790 789 787 786 784 783 781 780 778 777 775 774 772 770 769 767 766 765 763 762 760 758 757 756 755 753 752 751 750 749 748 746 745 744 743 741 740 738 736 735 734 732 731 730 729 728 728 727
812 811 810 810 808 807 806 805 804 803 802 801 800 798 797 796 795 793 792 790 789 788 786 785 784 782 780 779 777 776 775 773 771 769 768 766 765 764 762 761 759 758 756 755 754 752 751 750 749 747 746 745 744 743 741 740 739 737 735 734 732 730 729 727 726 725 725 724 723
811 810 809 808 807 806 805 804 803 801 800 799 798 797 795 794 793 791 790 789 787 786 785 783 781 780 778 776 775 774 772 770 769 767 765 764 763 761 760 758 757 755 754 752 751 750 749 749 747 746 744 743 742 741 740 738 737 735 734 732 730 728 726 725 724 723 722 721 720
810 809 808 807 805 805 803 802 801 800 799 798 796 795 794 792 791 790 788 787 785 784 782 780 779 777 776 774 773 771 770 768 767 765 763 761 760 759 757 756 754 752 751 750 749 748 747 746 745 744 743 741 740 739 737 736 735 733 732 730 728 727 725 723 721 720 720 719 717
808 807 806 805 804 803 802 801 800 798 797 796 795 793 792 791 789 788 786 785 783 781 780 779 777 775 774 772 770 769 767 766 765 763 761 759 758 756 755 753 751 750 748 747 746 745 745 744 743 742 740 739 738 736 735 733 732 730 729 727 726 724 723 721 719 718 717 716 715
807 805 805 803 802 801 800 799 798 797 795 794 793 791 790 789 787 786 784 782 781 779 778 776 775 774 772 770 768 767 765 764 762 760 759 757 755 754 752 750 749 747 746 745 744 743 742 741 740 739 738 737 736 734 733 731 729 728 726 725 723 722 720 719 717 716 715 714 713
805 804 803 802 800 800 799 797 796 795 794 792 791 790 788 786 785 784 782 780 779 777 776 774 773 771 770 768 766 765 763 761 760 758 756 755 753 751 750 748 747 745 744 743 742 741 740 739 738 737 736 735 734 732 730 729 727 725 724 722 720 719 718 716 715 714 713 712 710
803 802 801 800 799 798 797 796 795 793 792 790 789 788 786 785 783 781 780 779 777 775 774 773 771 769 768 766 764 762 760 759 757 756 754 752 750 749 747 746 745 743 742 741 740 739 737 736 735 734 733 732 731 730 728 727 725 723 721 720 718 717 715 715 713 712 711 710 709
802 801 800 799 797 796 795 794 793 791 790 789 787 786 784 783 781 780 778 777 775 773 772 771 769 767 765 764 762 760 758 756 755 754 752 750 748 746 745 744 742 741 740 739 738 736 735 734 733 732 731 730 729 728 726 724 723 721 719 717 715 714 713 712 711 710 709 708 707
800 799 798 797 796 795 793 792 791 790 788 787 785 784 782 781 779 778 776 775 773 771 770 768 767 765 763 761 760 758 756 755 753 751 750 748 746 745 743 741 740 739 737 736 735 734 733 732 730 730 729 728 727 725 724 722 720 719 717 715 713 712 711 710 709 708 707 706 705
799 798 797 795 794 793 792 790 789 788 786 785 783 782 780 779 777 775 774 773 771 770 768 766 764 762 760 759 757 755 754 752 751 749 747 746 745 743 741 739 738 736 735 734 733 732 731 730 728 727 726 725 724 723 721 719 718 716 715 713 711 710 709 708 707 706 705 704 704
798 796 795 794 793 791 790 789 788 786 785 783 781 780 779 777 775 774 772 771 769 768 766 764 763 761 759 757 755 753 751 750 748 747 745 744 742 741 739 737 736 735 733 732 731 730 729 728 726 725 724 723 722 720 719 717 715 714 712 711 709 708 707 706 705 704 703 702 702
796 795 794 792 791 790 789 787 786 784 783 781 779 778 776 775 774 772 770 769 767 765 764 762 760 759 757 755 753 752 750 748 746 745 744 742 740 739 737 735 734 732 731 730 729 728 727 726 724 723 722 721 720 718 716 715 713 711 710 709 707 706 705 704 703 702 701 700 699
795 794 792 791 790 788 787 785 784 782 781 779 777 776 774 773 772 770 769 767 765 763 761 760 758 756 755 753 751 750 748 746 744 743 741 740 739 737 735 733 731 730 729 728 727 726 725 724 722 721 720 719 717 715 714 712 711 709 708 706 705 704 703 702 700 699 698 696 695
794 792 791 789 788 786 785 784 782 780 779 777 776 774 773 771 770 768 767 765 763 761 759 758 756 754 752 751 749 747 746 745 743 741 739 738 737 735 733 730 729 728 727 726 725 724 723 722 720 719 718 717 715 713 712 710 709 707 706 704 703 702 700 699 698 696 695 693 692
792 791 789 788 786 785 783 782 780 779 777 775 774 772 771 770 768 766 765 764 762 759 757 755 754 752 750 749 747 745 744 743 741 739 737 736 735 733 731 729 726 725 725 724 723 722 720 720 718 717 716 715 713 711 710 709 707 705 704 702 700 699 698 697 695 694 692 690 689
790 789 788 786 784 783 781 780 778 777 775 773 772 770 769 768 766 764 763 761 760 758 755 753 752 750 749 747 745 743 741 740 739 738 736 734 732 731 730 727 725 723 722 722 721 720 719 717 716 715 714 713 711 710 708 706 705 703 701 700 698 697 696 695 693 691 690 688 687
788 787 786 785 783 781 780 778 776 775 774 772 770 769 767 766 764 762 761 760 758 756 754 752 750 748 747 745 743 741 739 738 737 735 734 732 730 729 728 726 723 721 720 720 719 718 716 715 714 713 712 711 710 708 706 705 702 700 699 697 696 695 693 692 691 689 687 685 685
787 785 784 783 781 780 778 776 775 773 772 770 769 767 765 764 762 760 759 757 756 754 752 750 748 746 745 743 741 740 737 735 734 733 732 730 729 727 725 724 721 720 718 717 717 715 715 713 712 711 710 709 708 706 704 702 700 699 697 696 695 693 691 689 688 686 685 683 682